Weather in Obihiro

Japan     42°54′15″N   143°10′02″E
temp.,
°C
wind,
m/s
gust,
m/s
humid.,
%
clouds,
%
prec.,
mm/h
press.,
hPa
HPBL,
m
23 june, wed
wed2300:00+9sse11894 0.0 101410
03:00+8e00903 0.0 101410
06:00+12nne00851 0.0 1015124
09:00+18sse11683 0.0 1014444
12:00+22se33610 0.0 1013833
15:00+20se556684 0.0 1013642
18:00+15ese3584100 0.0 1014217
21:00+11e2296100 0.0 101533
24 june, thu
thu2400:00+11ne1195100 0.0 101410
03:00+11nne1194100 0.0 101311
06:00+13e118790 0.0 1014155
09:00+18ssw227471 0.0 1014556
12:00+19sse337532 0.0 1013540
15:00+21se547020 0.0 1012864
18:00+16ese34845 0.1 1013272
21:00+12ese11925 0.1 101410
25 june, fri
fri2500:00+11e11936 0.0 101410
03:00+10ene11935 0.0 101410
06:00+14ese11884 0.0 1014144
09:00+19sse22756 0.0 1013586
12:00+23sse236512 0.1 10111154
15:00+22se337612 4.6 1010570
18:00+19ese128553 3.4 101142
21:00+14wnw23895 3.4 101251
26 june, sat
sat2600:00+13wsw11910 0.0 101213
03:00+12nw11910 0.0 101311
06:00+15nnw11865 0.0 1013122
09:00+21sw23695 0.0 1012493
12:00+26sw35575 0.0 10111054
15:00+27ssw35601 0.0 10101148
18:00+22se35835 0.0 1011134
21:00+17ne1184100 0.0 101311
27 june, sun
sun2700:00+16n0186100 0.0 101311
03:00+16nne1188100 0.0 101311
06:00+18nne0084100 0.0 101477
09:00+22se1176100 0.0 1013425
12:00+23sse2273100 0.0 1012716
15:00+20se4581100 0.0 1012333
18:00+18ene2290100 0.1 101265
21:00+16e2290100 0.1 101238